Location: Los Gatos B&B
(42.6926°N, 77.0646°W)
Time: 09:22:19
(UTC-05:00)

Daily predictions for brighter satellites

Satellite Brightness Start Highest point End
(mag) Time Altitude Azimuth Time Altitude Azimuth Time Altitude Azimuth
Cosmos 2218 Rocket 4.1 16:57:48 10° N 17:03:59 54° ENE 17:10:01 10° SSE
Cosmos 2251 Rocket 3.6 17:00:15 10° NNW 17:05:35 61° ENE 17:10:49 10° SSE
Cosmos 1812 3.4 17:02:58 10° SSE 17:06:27 33° E 17:09:58 10° NNE
Cosmos 1295 Rocket 4.5 17:01:27 10° N 17:07:36 86° E 17:13:41 10° S
Cosmos 2181 Rocket 4.2 17:01:36 10° S 17:07:58 89° W 17:14:27 10° N
SL-27 R/B 2.5 17:06:20 10° NNW 17:10:02 89° ENE 17:13:39 10° SSE
CORIOLIS 4.5 17:05:05 10° SE 17:10:12 44° ENE 17:15:18 10° N
CZ-2C R/B 3.8 17:06:46 10° N 17:11:14 78° WNW 17:15:44 10° SSW
Meteor 1-18 Rocket 4.4 17:12:14 10° S 17:17:43 54° E 17:23:19 10° NNE
Okean 1 4.0 17:14:57 10° SSE 17:18:37 34° E 17:22:20 10° NNE
Cosmos 1844 3.7 17:14:30 10° SSW 17:20:04 89° ESE 17:25:41 10° NNE
Cosmos 1536 4.4 17:16:28 10° NNW 17:20:18 39° W 17:24:06 10° SSW
Abrixas 3.3 17:18:07 10° NW 17:20:52 33° NNE 17:23:15 12° ENE
Cosmos 1346 Rocket 3.6 17:26:08 10° SSE 17:29:33 30° E 17:32:58 10° NNE
Cosmos 375 4.4 17:26:58 10° NNW 17:31:31 62° NE 17:35:20 10° SE
ISS -1.8 17:29:53 10° W 17:32:44 26° NNW 17:35:07 13° NE
Cosmos 1544 Rocket 3.7 17:28:46 10° N 17:33:15 80° W 17:37:42 10° S
SJ-7 4.4 17:29:14 10° SSE 17:33:26 68° ENE 17:37:40 10° N
PAYLOAD A 4.4 17:30:15 10° S 17:35:02 66° WSW 17:40:03 10° NNW
Cosmos 2278 Rocket 2.2 17:29:43 10° SSW 17:35:20 73° ESE 17:40:59 10° NNE
USA 116 4.5 17:29:56 10° NNE 17:35:22 83° ESE 17:40:30 10° SSW
COSMO-SKYMED 1 3.5 17:33:32 10° NE 17:37:19 28° E 17:41:04 10° SSE
SMAP 3.1 17:34:55 10° SSE 17:39:34 90° WSW 17:44:15 10° NNW
USA 234 3.3 17:34:55 11° NE 17:41:19 84° NW 17:47:51 10° SW
SL-24 DEB 4.4 17:36:58 10° NNE 17:41:36 51° E 17:46:09 10° SSE
CZ-4 R/B 4.3 17:42:13 10° SSE 17:46:21 75° ENE 17:50:31 10° N
BREEZE M DEB (TANK) 3.4 17:44:52 10° NW 17:47:56 43° NNE 17:53:28 16° E
SL-8 R/B 3.7 17:44:28 10° WSW 17:49:16 80° NNW 17:52:28 21° ENE
Genesis I 3.1 17:46:49 10° NNW 17:50:46 81° NE 17:54:39 10° SE
NOSS 3-4 (A) 4.3 17:46:02 10° NNW 17:52:20 36° NE 17:57:34 16° E
NOSS 3-4 (C) 4.4 17:46:08 10° NNW 17:52:25 35° NE 17:57:35 16° E
Cosmos 1536 Rocket 3.7 17:50:25 10° S 17:54:53 79° W 17:59:23 10° N
Nadezhda 3 Rocket 4.1 17:50:19 10° SSE 17:56:20 56° E 18:02:27 10° NNE
Cosmos 1833 Rocket 2.9 17:51:56 10° NNW 17:57:22 45° ENE 18:02:44 10° SE
Cosmos 1025 Rocket 4.0 17:55:27 10° SE 17:59:04 26° E 17:59:27 25° E
NOSS 3-3 (A) 4.1 17:53:30 10° SW 17:59:42 82° NW 18:05:35 14° NE
NOSS 3-3 (C) 4.1 17:53:36 10° SW 17:59:48 83° NW 18:05:40 14° NE
Cosmos 2082 Rocket 2.2 17:54:33 10° NNW 18:00:08 56° ENE 18:05:42 10° SE
Cosmos 921 Rocket 3.3 17:57:26 10° S 18:01:27 43° ESE 18:03:30 25° NE
EP 1 4.2 17:59:50 10° SSW 18:02:24 60° ESE 18:02:42 54° E
YAOGAN 1 3.4 17:59:08 10° S 18:03:21 53° W 18:07:36 10° NNW
Cosmos 1238 Rocket 4.0 18:00:53 10° SW 18:03:33 31° WNW 18:06:24 10° NNW
SPOT 3 Rocket 4.4 17:58:59 10° S 18:04:01 53° W 18:09:06 10° NNW
MSX 3.9 17:58:29 10° SSE 18:04:15 84° WSW 18:10:02 10° NNW
Meteor 2-21 Rocket 4.4 17:58:18 10° N 18:04:28 64° E 18:10:32 10° SSE
CZ-4 R/B 3.3 18:01:09 10° SSW 18:04:56 34° W 18:08:44 10° NNW
Cosmos 1975 3.2 18:01:08 10° NNW 18:05:11 66° W 18:09:11 10° S
Cosmos 1743 2.9 18:01:53 10° N 18:05:38 46° ENE 18:09:21 10° SSE
GRACE-2 4.0 18:03:16 10° SSE 18:05:48 50° ESE 18:05:48 50° ESE
GRACE-1 3.9 18:03:41 10° SSE 18:06:18 53° E 18:06:18 53° E
Meteor 2-16 Rocket 4.5 18:01:05 10° N 18:07:04 54° ENE 18:13:00 10° SSE
ATLAS 2AS CENTAUR R/B 4.0 17:59:58 10° NW 18:07:35 48° WSW 18:14:41 10° S
COSMOS 2487 2.6 18:06:12 10° NNW 18:09:48 78° WSW 18:13:22 10° SSE
GEOS 3 Rocket 3.8 18:06:32 19° ESE 18:09:56 46° NE 18:14:49 10° NNW
Cosmos 1500 3.4 18:06:31 10° NNW 18:10:20 71° W 18:14:10 10° S
Cosmos 1484 Rocket 2.5 18:08:01 10° SSE 18:11:45 85° ENE 18:15:30 10° N
CZ-2C R/B 3.7 18:07:52 10° S 18:12:38 44° W 18:17:32 10° NNW
Meteor 1-28 Rocket 3.6 18:15:53 41° E 18:15:55 41° E 18:19:31 10° S
Tiangong 1 1.2 18:16:56 10° WSW 18:19:55 56° SSE 18:19:55 56° SSE
Meteor 1-13 Rocket 4.2 18:14:50 10° S 18:20:30 80° E 18:26:21 10° NNE
SKYMED 2 3.5 18:21:59 15° NNE 18:25:33 85° WNW 18:29:53 10° SSW
Meteor 1-23 Rocket 4.4 18:21:59 10° SSE 18:27:23 46° E 18:29:14 34° NE
IDEFIX/ARIANE 42P 4.4 18:24:28 10° SSW 18:29:06 33° W 18:33:46 10° NNW
FALCON 9 R/B 3.9 18:06:15 10° WSW 18:31:01 55° S 18:35:31 26° ESE
BREEZE-M R/B 4.1 18:22:42 10° WSW 18:32:44 69° NNW 18:34:45 39° NE
Meteor 2-4 Rocket 3.5 18:31:34 10° S 18:36:52 63° E 18:38:55 36° NNE
Okean 1-7 Rocket 3.7 18:32:27 10° SSW 18:36:58 77° W 18:39:56 21° N
Meteor 2-9 Rocket 4.0 18:32:08 10° N 18:37:33 60° ENE 18:42:48 10° SSE
Cosmos 1190 Rocket 4.4 18:37:44 10° N 18:41:49 43° NNE 18:41:49 43° NNE
Cosmos 1934 Rocket 3.8 18:40:56 10° N 18:47:09 76° E 18:53:25 10° SSE
NOSS 2-1 (D) 3.5 18:49:51 10° SW 18:53:30 68° WNW 18:53:30 68° WNW
NOSS 2-1 (C) 3.6 18:50:32 10° SW 18:54:09 68° WNW 18:54:09 68° WNW
Meteor 2-8 Rocket 4.3 18:57:56 10° S 19:04:01 86° E 19:06:35 38° N
BREEZE M DEB (TANK) 3.3 19:03:47 10° WSW 19:08:45 47° W 19:08:45 47° W
ISS -0.1 19:07:45 10° NW 19:07:47 10° NW 19:07:47 10° NW
NOSS 2-1 (E) 4.5 19:09:15 10° SW 19:12:13 43° W 19:12:13 43° W
Cosmos 2278 Rocket 4.4 19:15:59 10° W 19:20:02 20° NW 19:23:40 11° N
USA 234 4.3 19:22:16 31° N 19:23:49 35° NNW 19:29:35 10° W
Cosmos 1605 Rocket 4.0 19:20:26 10° N 19:26:45 78° W 19:32:56 10° S
CZ-3B DEB 3.9 19:23:30 10° WNW 19:29:00 43° N 19:31:38 37° NNE
Cosmos 2056 Rocket 4.2 19:28:07 10° SW 19:32:40 52° W 19:32:40 52° W
NOSS 3-4 (A) 4.1 19:36:44 10° NW 19:43:40 61° WSW 19:45:08 52° SSW
Cosmos 2082 Rocket 4.5 19:39:34 10° NW 19:43:46 22° W 19:47:58 10° SSW
NOSS 3-4 (C) 4.1 19:36:50 10° NW 19:43:47 62° WSW 19:45:09 53° SSW
